Airfield :
LOGIN :

Register | Disclaimer

   EN    FR    IT 

 










Legend :    VFR   Marginal VFR   IFR   Intensive IFR   Very Intensive IFR
Visi :
Ceiling :
>= 8 km
>= 3000ft
5 to 8 km
1000 to 3000 ft
1500m to 5 km
500 to 1000 ft
800 to 1500m
200 to 500 ft
< 800m
< 200 ft
Symbols :   Thunderstorms  Fog  Heavy snow  Heavy precipitations  Wind > 20 kt
SIGMETs :     Misc.  Thunderstorms  Icing  Turbulence  Mountain Waves  Volcanic Ashes







- Airport Elevation : 143 ft
- IATA code : VDP


EKVD - Kolding Vamdrup

CURRENT METAR :
  • 221820Z AUTO 08002KT //// ///////// 12/11 Q1022

EXPIRED METARs :
  • 221750Z AUTO 09003KT //// ///////// 13/11 Q1022
  • 221720Z AUTO 08004KT //// ///////// 13/11 Q1021
  • 221650Z AUTO 08006KT //// ///////// 14/11 Q1021
  • 221620Z AUTO 08009KT //// ///////// 14/11 Q1021

Expired Forecast.
No reported NOTAMs for that airfield.



MET'MAP, your aeronautical weather chart ! - Copyright ORBIFLY December 2007 - Disclaimer

ORBIFLY MET'MAP TEAM :

Programming & Development : Alexandra Zaïnal
Concept & Development : Baudouin d'Aumeries
Co-Development & Prog : Marc-Olivier Méhu
Technical & hardware support : Manuel Goepfert

Contact : metmap@orbifly.com




SOURCES & CREDITS :

   NOAA